OPS 4682 DEB, 19954

Orbit data source: Space-Track

OPS 4682 DEB, 19954 is space debris in LEO originally from a launch on Sat, 03 Apr 1965 UTC launched from the Air Force Western Test Range (AFWTR). Debris objects in space refer to the collection of defunct objects orbiting the Earth. Examples of debris include non-operational satellites, rocket bodies, and fragments generated from explosions, collisions, or faulty payload assembly.

Loading next visibility...
Identifier
19954, 1965-027AZ
Orbit
LEO
Country
Flag of USUS
Related business
Manufacturer
Unknown
Mission
Spacecraft
Bus & Motor
Unknown
Mass
Unknown
Launch date (UTC)
1965-04-03 (61 years ago)
Launch vehicle
Unknown
Launch site
Air Force Western Test Range (AFWTR)
Object type
Payload
Rocket body
Debris
Shape & HBR
Unknown shape, 0.1 m
Radar Cross Section
Medium (>0.1 m² and <1 m²)

Expand to show TLE details & history
Last TLE update: 12 hours ago

TLE from 12 hours ago
0 OPS 4682 DEB
1 19954U 65027AZ  26150.74506669  .00000033  00000-0  80305-4 0  9991
2 19954  90.3863  78.3368 0028837 187.9485 200.1172 13.05181371773273
Epoch: 2026-05-30T17:52Z
TLE epoch observation values (Epoch: 2026-05-30T17:52:53.762Z)
Latitude
27.98968°
Longitude
-78.34818°
Altitude
1,265.947 km
Speed
7.215 km/s
True Right ascension
05h 12m 31s
True Declination
27° 51' 25"
Sunlit
Object was in daylight at epoch
Visualization orbit readout
Latitude
Unknown
Longitude
Unknown
Altitude
Unknown
Speed
Unknown
Apparent Right ascension
Unknown
Apparent Declination
Unknown
Sunlit
N/A
Visualization observer readout
Local Sidereal Time
15:24:58
Azimuth
Unknown
Elevation
Unknown
Doppler factor
Unknown
Orbital elements
Apogee altitude
1,260.938 km
Perigee altitude
1,217.007 km
Semi-major axis
7,617.109 km
Eccentricity
0.00288
Inclination
90.3863°
RAAN
78.3368°
Arg. of periapsis
187.9485°
True anomaly
200.00393°
Mean anomaly
200.1172°
Eccentric anomaly
200.06053°
Mean motion
3.26481 °/min
Orbital period
110.27 mins
BSTAR
0.000080305
Loading maneuver chart data...
Computing Atmospheric mass density...
Loading historical data...
Loading historical data...
Loading historical data...
Loading historical data...
Loading historical data...
Loading historical data...
Loading historical data...

Documentation

Showing up to 5 results
|